{"data":{"norad_id":52574,"epoch":"2026-05-25T03:17:45.407040Z","epoch_age_seconds":63345,"freshness":"FRESH","line1":"1 52574U 22051AQ  26145.13733110  .00000158  00000+0  27996-4 0  9990","line2":"2 52574  53.2140 135.9328 0001190  87.6180 272.4949 15.08834518223122","mean_motion":15.08834518,"eccentricity":0.000119,"inclination_deg":53.214,"raan_deg":135.9328,"arg_perigee_deg":87.618,"mean_anomaly_deg":272.4949,"bstar":2.7996e-5,"rev_number":22312,"period_min":95.437901427968,"perigee_km":538.93691553544,"apogee_km":540.58337505602,"semimajor_km":6917.8971452957,"source":"CELESTRAK","updated_at":"2026-05-25T13:38:17.192131Z"}}